TimeCST,TemperatureF,Dew PointF,Humidity,Sea Level PressureIn,VisibilityMPH,Wind Direction,Wind SpeedMPH,Gust SpeedMPH,PrecipitationIn,Events,Conditions,WindDirDegrees,DateUTC
12:53 AM,42.1,18.0,38,29.92,10.0,North,12.7,-,N/A,,Partly Cloudy,350,2014-01-13 06:53:00
1:53 AM,37.9,19.0,47,29.93,10.0,NNW,12.7,-,N/A,,Partly Cloudy,340,2014-01-13 07:53:00
2:53 AM,36.0,21.9,57,29.96,10.0,NW,9.2,-,N/A,,Partly Cloudy,320,2014-01-13 08:53:00
3:53 AM,34.0,21.0,59,29.98,10.0,NW,11.5,-,N/A,,Partly Cloudy,310,2014-01-13 09:53:00
4:53 AM,32.0,19.9,61,30.01,10.0,NW,11.5,-,N/A,,Partly Cloudy,310,2014-01-13 10:53:00
5:53 AM,28.9,19.0,67,30.05,10.0,WNW,8.1,-,N/A,,Partly Cloudy,300,2014-01-13 11:53:00
6:53 AM,28.0,17.1,63,30.10,10.0,WNW,9.2,-,N/A,,Partly Cloudy,290,2014-01-13 12:53:00
7:53 AM,28.0,14.0,56,30.13,10.0,WNW,10.4,-,N/A,,Partly Cloudy,300,2014-01-13 13:53:00
8:53 AM,33.1,12.0,42,30.13,10.0,West,5.8,-,N/A,,Clear,270,2014-01-13 14:53:00
9:53 AM,39.9,9.0,28,30.13,10.0,West,12.7,-,N/A,,Clear,280,2014-01-13 15:53:00
10:53 AM,48.0,8.1,20,30.14,10.0,NW,13.8,-,N/A,,Clear,320,2014-01-13 16:53:00
11:53 AM,53.1,3.9,14,30.10,10.0,WNW,16.1,20.7,N/A,,Clear,300,2014-01-13 17:53:00
12:53 PM,54.0,3.9,13,30.07,10.0,West,11.5,24.2,N/A,,Clear,270,2014-01-13 18:53:00
1:53 PM,55.9,-0.0,10,30.04,10.0,NW,12.7,-,N/A,,Partly Cloudy,310,2014-01-13 19:53:00
2:53 PM,57.0,-0.9,9,30.04,10.0,WNW,13.8,-,N/A,,Clear,300,2014-01-13 20:53:00
3:53 PM,57.0,-2.0,9,30.04,10.0,WNW,10.4,-,N/A,,Clear,300,2014-01-13 21:53:00
4:53 PM,57.0,-2.9,9,30.04,10.0,West,15.0,19.6,N/A,,Partly Cloudy,280,2014-01-13 22:53:00
5:53 PM,50.0,-0.9,12,30.06,10.0,West,8.1,-,N/A,,Partly Cloudy,270,2014-01-13 23:53:00
6:53 PM,45.0,-0.0,15,30.08,10.0,West,4.6,-,N/A,,Partly Cloudy,270,2014-01-14 00:53:00
7:53 PM,44.1,1.0,17,30.08,10.0,SW,4.6,-,N/A,,Partly Cloudy,220,2014-01-14 01:53:00
8:53 PM,42.1,3.0,20,30.06,10.0,South,4.6,-,N/A,,Mostly Cloudy,190,2014-01-14 02:53:00
9:53 PM,35.1,5.0,28,30.06,10.0,West,4.6,-,N/A,,Mostly Cloudy,270,2014-01-14 03:53:00
10:53 PM,37.9,6.1,27,30.04,10.0,West,6.9,-,N/A,,Mostly Cloudy,270,2014-01-14 04:53:00
11:53 PM,34.0,8.1,34,30.03,10.0,WSW,10.4,-,N/A,,Scattered Clouds,250,2014-01-14 05:53:00